Location: Serin Observatory
(40.5200°N, 74.4500°W)
Time: 04:43:32
(UTC+00:00)

SL-8 R/B - Visible Passes

Search period start: 01 November 2014 00:00
Search period end: 11 November 2014 00:00
Orbit: 659 x 670 km, 48.4° (Epoch: 31 October)

Date Brightness Start Highest point End Pass type
(mag) Time Alt. Az. Time Alt. Az. Time Alt. Az.
01 Nov 5.5 00:47:25 10° W 00:49:57 29° W 00:49:57 29° W visible
01 Nov 3.6 23:36:16 10° WSW 23:41:03 82° NNW 23:42:27 46° NE visible
02 Nov 6.6 01:19:44 10° WNW 01:20:29 14° WNW 01:20:29 14° WNW visible
02 Nov 4.0 22:25:39 10° SW 22:30:15 51° SE 22:34:52 10° ENE visible
03 Nov 4.4 00:08:19 10° W 00:12:54 46° NNW 00:12:54 46° NNW visible
03 Nov 3.8 22:57:07 10° WSW 23:01:54 77° NNW 23:05:16 20° NE visible
04 Nov 5.6 00:40:38 10° WNW 00:43:17 26° NW 00:43:17 26° NW visible
04 Nov 4.4 23:29:12 10° W 23:33:47 44° NNW 23:35:36 30° NNE visible
05 Nov 6.5 01:12:53 10° WNW 01:13:37 14° NW 01:13:37 14° NW visible
05 Nov 3.9 22:17:59 10° WSW 22:22:44 72° NNW 22:27:31 10° ENE visible
06 Nov 4.8 00:01:32 10° WNW 00:05:52 33° N 00:05:54 33° N visible
06 Nov 4.5 22:50:06 10° W 22:54:39 43° NNW 22:58:09 16° NE visible
07 Nov 5.6 00:33:45 10° WNW 00:36:10 24° NW 00:36:10 24° NW visible
07 Nov 4.8 23:22:25 10° WNW 23:26:44 33° N 23:28:24 26° NNE visible
08 Nov 6.5 01:05:42 10° NW 01:06:25 14° NW 01:06:25 14° NW visible
08 Nov 4.5 22:10:59 10° W 22:15:30 41° NNW 22:20:02 10° NE visible
08 Nov 4.9 23:54:37 10° WNW 23:58:39 31° N 23:58:39 31° N visible
09 Nov 4.8 22:43:18 10° WNW 22:47:36 32° N 22:50:54 15° NE visible
10 Nov 5.5 00:26:32 10° NW 00:28:55 26° NW 00:28:55 26° NW visible
10 Nov 4.8 23:15:29 10° WNW 23:19:46 32° N 23:21:11 27° NE visible
